Location: Heidgraben
(53.7081°N, 9.6576°E)
Time: 08:43:50
(UTC+00:00)

Cosmos 1766 Rocket - Pass Details

Date: 05 July 2020
Orbit: 605 x 632 km, 82.5° (Epoch: 14 August)

Event Time Altitude Azimuth Distance (km) Brightness Sun altitude
Exits shadow 22:44:23 21° 173° (S) 1,413 4.7 -13.1°
Maximum altitude 22:47:15 64° 97° (E) 690 3.7 -13.2°
Drops below altitude 10° 22:51:39 10° 16° (NNE) 2,006 7.3 -13.3°
Sets 22:53:55 0° 14° (NNE) 2,922 8.4 -13.3°
